TimeEST,TemperatureF,Dew PointF,Humidity,Sea Level PressureIn,VisibilityMPH,Wind Direction,Wind SpeedMPH,Gust SpeedMPH,PrecipitationIn,Events,Conditions,WindDirDegrees,DateUTC
12:54 AM,16.0,1.9,54,30.14,10.0,West,8.1,-,N/A,,Clear,270,2013-02-02 05:54:00
1:54 AM,14.0,1.0,56,30.16,10.0,WSW,6.9,-,N/A,,Clear,250,2013-02-02 06:54:00
2:54 AM,12.9,1.9,62,30.17,10.0,Calm,Calm,-,N/A,,Clear,0,2013-02-02 07:54:00
3:54 AM,12.0,1.0,61,30.18,10.0,WSW,8.1,-,N/A,,Clear,240,2013-02-02 08:54:00
4:54 AM,12.0,1.0,61,30.19,10.0,SW,5.8,-,N/A,,Partly Cloudy,230,2013-02-02 09:54:00
5:54 AM,12.0,1.0,61,30.18,10.0,Calm,Calm,-,N/A,,Mostly Cloudy,0,2013-02-02 10:54:00
7:54 AM,12.0,3.9,70,30.21,10.0,Calm,Calm,-,N/A,,Overcast,0,2013-02-02 12:54:00
8:54 AM,14.0,3.0,62,30.20,10.0,ESE,4.6,-,N/A,,Overcast,120,2013-02-02 13:54:00
9:54 AM,16.0,3.0,57,30.19,10.0,Calm,Calm,-,N/A,,Overcast,0,2013-02-02 14:54:00
10:54 AM,19.0,5.0,54,30.17,10.0,South,4.6,-,N/A,,Scattered Clouds,180,2013-02-02 15:54:00
11:54 AM,21.9,6.1,51,30.12,10.0,South,9.2,-,N/A,,Overcast,180,2013-02-02 16:54:00
12:54 PM,23.0,5.0,46,30.08,10.0,SSE,8.1,-,N/A,,Overcast,160,2013-02-02 17:54:00
1:54 PM,26.1,3.9,39,30.04,10.0,SSW,5.8,-,N/A,,Overcast,200,2013-02-02 18:54:00
2:54 PM,26.1,3.0,37,30.03,10.0,SW,8.1,18.4,N/A,,Overcast,230,2013-02-02 19:54:00
3:54 PM,25.0,3.0,39,30.02,10.0,South,13.8,18.4,N/A,,Overcast,190,2013-02-02 20:54:00
4:54 PM,23.0,6.1,48,30.02,10.0,South,8.1,-,N/A,,Overcast,190,2013-02-02 21:54:00
5:54 PM,24.1,6.1,46,30.01,10.0,South,5.8,-,N/A,,Overcast,190,2013-02-02 22:54:00
6:54 PM,24.1,3.9,42,30.01,10.0,SSW,11.5,-,N/A,,Overcast,200,2013-02-02 23:54:00
7:54 PM,21.9,12.0,66,30.03,10.0,NW,8.1,-,N/A,,Overcast,310,2013-02-03 00:54:00
8:54 PM,19.9,14.0,78,30.05,3.0,WNW,5.8,-,0.00,Snow,Light Snow,300,2013-02-03 01:54:00
9:03 PM,19.4,14.0,80,30.01,2.5,NW,4.6,-,0.00,Snow,Light Snow,310,2013-02-03 02:03:00
9:12 PM,19.4,14.0,80,30.01,4.0,Calm,Calm,-,0.00,Snow,Light Snow,0,2013-02-03 02:12:00
9:27 PM,19.4,12.2,74,30.01,6.0,Calm,Calm,-,0.00,,Haze,0,2013-02-03 02:27:00
9:54 PM,19.0,12.0,74,30.04,10.0,Variable,3.5,-,0.00,,Overcast,0,2013-02-03 02:54:00
10:54 PM,19.0,10.9,71,30.04,3.0,West,3.5,-,0.00,Snow,Light Snow,280,2013-02-03 03:54:00
11:06 PM,19.4,10.4,68,30.00,2.5,WNW,3.5,-,0.00,Snow,Light Snow,290,2013-02-03 04:06:00
11:15 PM,19.4,12.2,74,30.00,4.0,Calm,Calm,-,0.00,Snow,Light Snow,0,2013-02-03 04:15:00
11:54 PM,19.0,12.9,77,30.04,10.0,Calm,Calm,-,0.00,,Overcast,0,2013-02-03 04:54:00